This demonstration page uses our WeatherBlox Daily Observations layout. Learn more.

Left ArrowRight Arrow

Hourly Observations for January 28, 2022

Temp ( °F °C ) Dew Point ( °F °C ) Humidity (%) Winds ( mph kmh ) Pressure ( in mb ) Visibility ( mi km ) Precip ( " mm )
12:53 am 00:53 Cloudy 22 -5.6 16 -8.9 78 78 N 6 9 30.50 1033 10 16 0.00 0.00
1:53 am 01:53 Cloudy 21 -6.1 16 -8.9 81 81 N 6 9 30.48 1032 10 16 0.00 0.00
2:53 am 02:53 Cloudy 20 -6.7 16 -8.9 85 85 NNE 7 11 30.49 1033 10 16 0.00 0.00
3:53 am 03:53 Cloudy 20 -6.7 15 -9.4 81 81 Calm 30.47 1032 10 16 0.00 0.00
4:53 am 04:53 Cloudy 18 -7.8 12 -11.1 77 77 Calm 30.46 1032 10 16 0.00 0.00
5:53 am 05:53 Cloudy 19 -7.2 12 -11.1 74 74 Calm 30.48 1032 10 16 0.00 0.00
6:53 am 06:53 Cloudy 20 -6.7 10 -12.2 65 65 Calm 30.49 1033 10 16 0.00 0.00
7:53 am 07:53 Mostly Cloudy 20 -6.7 9 -12.8 62 62 SE 3 6 30.50 1033 10 16 0.00 0.00
8:53 am 08:53 Partly Cloudy 20 -6.7 15 -9.4 81 81 S 6 9 30.49 1033 10 16 0.00 0.00
9:53 am 09:53 Partly Cloudy 23 -5 14 -10 68 68 VRB 6 9 30.49 1033 10 16 0.00 0.00
10:53 am 10:53 Mostly Sunny 27 -2.8 18 -7.8 69 69 SW 7 11 30.49 1033 10 16 0.00 0.00
11:53 am 11:53 Sunny 32 0 20 -6.7 61 61 VRB 6 9 30.46 1032 10 16 0.00 0.00
12:53 pm 12:53 Sunny 36 2.2 21 -6.1 55 55 W 6 9 30.42 1030 10 16 0.00 0.00
1:53 pm 13:53 Sunny 39 3.9 22 -5.6 50 50 WSW 5 7 30.39 1029 10 16 0.00 0.00
2:53 pm 14:53 Sunny 41 5 21 -6.1 45 45 SW 8 13 30.35 1028 10 16 0.00 0.00
3:53 pm 15:53 Sunny 42 5.6 20 -6.7 41 41 SSW 7 11 30.33 1027 10 16 0.00 0.00
4:53 pm 16:53 Sunny 42 5.6 20 -6.7 41 41 SSW 7 11 30.32 1027 10 16 0.00 0.00
5:53 pm 17:53 Clear 37 2.8 19 -7.2 48 48 S 7 11 30.30 1026 10 16 0.00 0.00
6:53 pm 18:53 Clear 34 1.1 17 -8.3 50 50 S 8 13 30.29 1026 10 16 0.00 0.00
7:53 pm 19:53 Clear 30 -1.1 17 -8.3 58 58 S 9 15 30.27 1025 10 16 0.00 0.00
8:53 pm 20:53 Clear 30 -1.1 18 -7.8 61 61 SSW 7 11 30.26 1025 10 16 0.00 0.00
9:53 pm 21:53 Clear 28 -2.2 17 -8.3 63 63 SSW 8 13 30.24 1024 10 16 0.00 0.00
10:53 pm 22:53 Clear 26 -3.3 15 -9.4 63 63 SW 6 9 30.21 1023 10 16 0.00 0.00
11:53 pm 23:53 Clear 25 -3.9 13 -10.6 60 60 SW 7 11 30.20 1023 10 16 0.00 0.00

Powered by AerisWeather